Regional Weather Roundup
Issued by NWS

Home | Current Version | Previous Version | Graphics & Text | Print | Product List | Glossary On
Versions: 1 2 3 4 5 6 7 8 9 10 11 12 13 14 15 16 17 18 19 20 21 22 23 24 25 26 27 28 29 30 31 32 33 34 35 36 37 38 39 40 41 42 43 44 45 46 47 48 49 50
000
ASUS43 KLMK 290010
RWRKY
KENTUCKY REGIONAL WEATHER ROUNDUP
NATIONAL WEATHER SERVICE LOUISVILLE KY
800 PM EDT WED SEP 28 2016

NOTE "FAIR" INDICATES FEW OR NO CLOUDS BELOW 12,000 FEET
WITH NO SIGNIFICANT WEATHER AND/OR OBSTRUCTIONS TO VISIBILITY.

KYZ001>023-026-027-061>063-070>075-290100-
WESTERN AND SOUTH CENTRAL KENTUCKY

CITY           SKY/WX    TMP DP  RH WIND       PRES   REMARKS
PADUCAH        PTCLDY    63  44  50 N12G20    30.02R
HENDERSON      PTCLDY    59  43  55 NW13      30.01R
OWENSBORO      NOT AVBL
HOPKINSVILLE   CLEAR     65  48  53 NW9       29.97R
BOWLING GREEN  PTCLDY    63  59  87 SW3       29.95R
GLASGOW        PTCLDY    58  58 100 CALM      29.96R
$$

KYZ024-025-028>034-038-045-046-053-290100-
NORTH CENTRAL KENTUCKY

CITY           SKY/WX    TMP DP  RH WIND       PRES   REMARKS
LOUISVILLE/SDF PTCLDY    60  50  69 NW6       29.95R
LOUISVILLE/LOU PTCLDY    60  51  72 N3        29.95R
FORT KNOX      MOCLDY    60  52  74 NW6       29.94R
$$

KYZ035>037-039>044-047>052-055>060-089>105-290100-
NORTHEAST KENTUCKY

CITY           SKY/WX    TMP DP  RH WIND       PRES   REMARKS
LEXINGTON      MOCLDY    58  56  93 SW6       29.94R
COVINGTON      MOCLDY    54  52  93 NW6       29.91F
FRANKFORT      MOCLDY    59  56  89 W3        29.92R
$$

KYZ054-064>069-076>088-106>120-290100-
SOUTHEAST KENTUCKY

CITY           SKY/WX    TMP DP  RH WIND       PRES   REMARKS
JACKSON        CLOUDY    60  53  77 VRB6      29.96R
LONDON         CLOUDY    62  53  72 NW6       29.94R
SOMERSET       LGT RAIN  59  55  88 NW5       29.98R
MIDDLESBORO    PTCLDY    65  54  67 CALM      29.91R
MONTICELLO     LGT RAIN  60  56  86 NW9G18    29.99R
$$





USA.gov is the U.S. government's official web portal to all federal, state and local government web resources and services.